Hourly Weather Zacheslovka

Today, 15 July, Wednesday

Time Temperature Precipitation Wind Pressure Humidity
00:00 +16°C° 0 mm 5 mps 736 mmHg 95%
01:00 +16°C° 0 mm 5 mps 737 mmHg 95%
02:00 +16°C° 0 mm 5 mps 737 mmHg 95%
03:00 +16°C° 0 mm 6 mps 737 mmHg 95%
04:00 +16°C° 0 mm 6 mps 737 mmHg 94%
05:00 +16°C° 0 mm 6 mps 737 mmHg 93%
06:00 +16°C° 0 mm 6 mps 737 mmHg 92%
07:00 +16°C° 0.1 mm 7 mps 737 mmHg 91%
08:00 +16°C° 0.1 mm 7 mps 738 mmHg 89%
09:00 +17°C° 0.1 mm 7 mps 738 mmHg 87%
10:00 +16°C° 0.5 mm 7 mps 738 mmHg 88%
11:00 +16°C° 0.5 mm 7 mps 738 mmHg 88%
12:00 +16°C° 0.5 mm 7 mps 738 mmHg 89%
13:00 +15°C° 0.1 mm 7 mps 738 mmHg 88%
14:00 +15°C° 0.1 mm 8 mps 739 mmHg 87%
15:00 +13°C° 0.1 mm 9 mps 739 mmHg 86%
16:00 +12°C° 0.4 mm 8 mps 739 mmHg 89%
17:00 +12°C° 0.4 mm 8 mps 739 mmHg 91%
18:00 +11°C° 0.4 mm 8 mps 739 mmHg 93%
19:00 +11°C° 0.1 mm 8 mps 739 mmHg 93%
20:00 +11°C° 0.1 mm 8 mps 739 mmHg 94%
21:00 +12°C° 0.1 mm 8 mps 740 mmHg 94%
22:00 +12°C° 0.2 mm 7 mps 740 mmHg 94%
23:00 +12°C° 0.2 mm 7 mps 740 mmHg 95%

Tomorrow, 16 July, Thursday

Time Temperature Precipitation Wind Pressure Humidity
00:00 +12°C° 0.2 mm 7 mps 740 mmHg 95%
01:00 +12°C° 0.3 mm 7 mps 740 mmHg 95%
02:00 +13°C° 0.3 mm 6 mps 740 mmHg 95%
03:00 +13°C° 0.3 mm 6 mps 740 mmHg 96%
04:00 +13°C° 0.5 mm 6 mps 740 mmHg 96%
05:00 +13°C° 0.5 mm 6 mps 740 mmHg 96%
06:00 +13°C° 0.5 mm 6 mps 740 mmHg 95%
07:00 +13°C° 0.2 mm 6 mps 741 mmHg 95%
08:00 +13°C° 0.2 mm 6 mps 741 mmHg 94%
09:00 +13°C° 0.2 mm 6 mps 742 mmHg 94%
10:00 +13°C° 0.1 mm 6 mps 742 mmHg 94%
11:00 +13°C° 0.1 mm 6 mps 742 mmHg 93%
12:00 +13°C° 0.1 mm 6 mps 743 mmHg 93%
13:00 +13°C° 0.1 mm 6 mps 743 mmHg 93%
14:00 +14°C° 0.1 mm 6 mps 744 mmHg 93%
15:00 +14°C° 0.1 mm 6 mps 744 mmHg 93%
16:00 +14°C° 0 mm 5 mps 744 mmHg 91%
17:00 +15°C° 0 mm 5 mps 744 mmHg 90%
18:00 +15°C° 0 mm 5 mps 744 mmHg 89%
19:00 +15°C° 0 mm 4 mps 744 mmHg 91%
20:00 +14°C° 0 mm 3 mps 745 mmHg 92%
21:00 +14°C° 0 mm 3 mps 745 mmHg 94%
22:00 +13°C° 0 mm 3 mps 745 mmHg 95%
23:00 +13°C° 0 mm 3 mps 745 mmHg 95%

Day after tomorrow, 17 July, Friday

Time Temperature Precipitation Wind Pressure Humidity
00:00 +13°C° 0 mm 4 mps 745 mmHg 95%
01:00 +13°C° 0 mm 3 mps 745 mmHg 95%
02:00 +13°C° 0 mm 3 mps 745 mmHg 96%
03:00 +13°C° 0 mm 3 mps 745 mmHg 96%
04:00 +13°C° 0 mm 3 mps 745 mmHg 95%
05:00 +13°C° 0 mm 3 mps 745 mmHg 95%
06:00 +13°C° 0 mm 3 mps 745 mmHg 94%
07:00 +14°C° 0 mm 3 mps 746 mmHg 90%
08:00 +17°C° 0 mm 4 mps 746 mmHg 86%
09:00 +18°C° 0 mm 4 mps 746 mmHg 82%
10:00 +19°C° 0.2 mm 4 mps 746 mmHg 79%
11:00 +19°C° 0.2 mm 4 mps 746 mmHg 77%
12:00 +20°C° 0.2 mm 5 mps 746 mmHg 74%
13:00 +20°C° 0.1 mm 5 mps 746 mmHg 73%
14:00 +21°C° 0.1 mm 4 mps 746 mmHg 72%
15:00 +21°C° 0.1 mm 4 mps 746 mmHg 71%
16:00 +21°C° 0.4 mm 4 mps 747 mmHg 75%
17:00 +20°C° 0.4 mm 3 mps 747 mmHg 78%
18:00 +20°C° 0.4 mm 3 mps 747 mmHg 81%
19:00 +19°C° 0.2 mm 3 mps 747 mmHg 85%
20:00 +17°C° 0.2 mm 2 mps 747 mmHg 88%
21:00 +16°C° 0.2 mm 2 mps 747 mmHg 92%
22:00 +16°C° 0 mm 2 mps 748 mmHg 93%
23:00 +15°C° 0 mm 2 mps 748 mmHg 93%

18 July, Saturday

Time Temperature Precipitation Wind Pressure Humidity
00:00 +15°C° 0 mm 2 mps 748 mmHg 94%
01:00 +15°C° 0 mm 2 mps 748 mmHg 94%
02:00 +14°C° 0 mm 2 mps 748 mmHg 95%
03:00 +14°C° 0 mm 2 mps 749 mmHg 95%
04:00 +14°C° 0 mm 2 mps 749 mmHg 95%
05:00 +15°C° 0 mm 2 mps 749 mmHg 95%
06:00 +15°C° 0 mm 2 mps 749 mmHg 94%
07:00 +16°C° 0 mm 2 mps 750 mmHg 89%
08:00 +18°C° 0 mm 2 mps 750 mmHg 84%
09:00 +19°C° 0 mm 2 mps 750 mmHg 79%
10:00 +20°C° 0 mm 3 mps 750 mmHg 77%
11:00 +20°C° 0 mm 3 mps 750 mmHg 75%
12:00 +21°C° 0 mm 3 mps 750 mmHg 73%
13:00 +22°C° 0.1 mm 3 mps 750 mmHg 71%
14:00 +22°C° 0.1 mm 3 mps 750 mmHg 69%
15:00 +24°C° 0.1 mm 3 mps 750 mmHg 67%
16:00 +24°C° 0 mm 3 mps 750 mmHg 69%
17:00 +24°C° 0 mm 2 mps 750 mmHg 72%
18:00 +24°C° 0 mm 2 mps 750 mmHg 74%
19:00 +21°C° 0 mm 2 mps 750 mmHg 78%
20:00 +20°C° 0 mm 2 mps 750 mmHg 82%
21:00 +18°C° 0 mm 2 mps 750 mmHg 86%
22:00 +17°C° 0 mm 2 mps 750 mmHg 88%
23:00 +17°C° 0 mm 2 mps 750 mmHg 89%

19 July, Sunday

Time Temperature Precipitation Wind Pressure Humidity
00:00 +16°C° 0 mm 2 mps 751 mmHg 91%
01:00 +16°C° 0 mm 2 mps 751 mmHg 92%
02:00 +15°C° 0 mm 2 mps 751 mmHg 93%
03:00 +15°C° 0 mm 2 mps 751 mmHg 93%
04:00 +15°C° 0 mm 2 mps 751 mmHg 93%
05:00 +15°C° 0 mm 2 mps 751 mmHg 92%
06:00 +16°C° 0 mm 2 mps 751 mmHg 92%
07:00 +17°C° 0 mm 2 mps 751 mmHg 86%
08:00 +19°C° 0 mm 3 mps 751 mmHg 81%
09:00 +20°C° 0 mm 3 mps 751 mmHg 75%
10:00 +21°C° 0 mm 3 mps 751 mmHg 71%
11:00 +22°C° 0 mm 3 mps 751 mmHg 67%
12:00 +23°C° 0 mm 4 mps 751 mmHg 63%
13:00 +23°C° 0 mm 4 mps 750 mmHg 63%
14:00 +25°C° 0 mm 4 mps 750 mmHg 63%
15:00 +25°C° 0 mm 3 mps 750 mmHg 63%
16:00 +25°C° 0 mm 3 mps 750 mmHg 66%
17:00 +25°C° 0 mm 3 mps 749 mmHg 69%
18:00 +25°C° 0 mm 2 mps 749 mmHg 73%
19:00 +23°C° 0 mm 2 mps 749 mmHg 76%
20:00 +20°C° 0 mm 2 mps 749 mmHg 80%
21:00 +19°C° 0 mm 1 mps 749 mmHg 83%
22:00 +19°C° 0 mm 1 mps 749 mmHg 85%
23:00 +18°C° 0 mm 1 mps 749 mmHg 86%

20 July, Monday

Time Temperature Precipitation Wind Pressure Humidity
00:00 +18°C° 0 mm 1 mps 749 mmHg 88%
01:00 +16°C° 0 mm 1 mps 749 mmHg 89%
02:00 +16°C° 0 mm 1 mps 748 mmHg 90%
03:00 +16°C° 0 mm 1 mps 748 mmHg 91%
04:00 +16°C° 0 mm 2 mps 748 mmHg 91%
05:00 +16°C° 0 mm 2 mps 748 mmHg 91%
06:00 +17°C° 0 mm 2 mps 748 mmHg 91%
07:00 +18°C° 0 mm 2 mps 748 mmHg 86%
08:00 +19°C° 0 mm 2 mps 748 mmHg 82%
09:00 +20°C° 0 mm 2 mps 748 mmHg 77%
10:00 +21°C° 0 mm 2 mps 748 mmHg 74%
11:00 +22°C° 0 mm 3 mps 748 mmHg 71%
12:00 +24°C° 0 mm 3 mps 747 mmHg 68%
13:00 +24°C° 0 mm 3 mps 747 mmHg 67%
14:00 +24°C° 0 mm 3 mps 747 mmHg 66%
15:00 +25°C° 0 mm 3 mps 747 mmHg 65%
16:00 +24°C° 0.1 mm 2 mps 747 mmHg 68%
17:00 +24°C° 0.1 mm 2 mps 746 mmHg 70%
18:00 +24°C° 0.1 mm 2 mps 746 mmHg 73%
19:00 +21°C° 0.1 mm 2 mps 746 mmHg 77%
20:00 +19°C° 0.1 mm 2 mps 746 mmHg 81%
21:00 +18°C° 0.1 mm 2 mps 746 mmHg 86%
22:00 +17°C° 0 mm 2 mps 746 mmHg 87%
23:00 +16°C° 0 mm 2 mps 746 mmHg 87%
Show more